Weather History for CYTH - February, 2012

Change the Weather History Date:

Tuesday, February 14, 2012

  Actual Average Record
Temperature  
Mean Temperature 6 °F -  
Max Temperature 25 °F 13 °F 26 °F (1998)
Min Temperature -13 °F -7 °F -41 °F (2015)
Degree Days  
Heating Degree Days 59    
Moisture  
Dew Point -3 °F    
Average Humidity 74    
Maximum Humidity 100    
Minimum Humidity 47    
Precipitation  
Precipitation 0.00 in 0.02 in - ()
Sea Level Pressure  
Sea Level Pressure 29.65 in    
Wind  
Wind Speed 1 mph ()    
Max Wind Speed 5 mph    
Max Gust Speed -    
Visibility 15.0 miles    
Events      
Averages and records for this station are not official NWS values.
T = Trace of Precipitation, MM = Missing Value Source: Averaged Metar Reports

Daily Weather History Graph

Daily Weather History Graph

Search for Another Location

Airport or City:

Trip Planner

Search our weather history database for the weather conditions in past years. The results will help you decide how hot, cold, wet, or windy it might be!

Date:

Astronomy

Feb. 14, 2012 Rise Set
Actual Time 7:59 AM CST 5:32 PM CST
Civil Twilight 7:20 AM CST 6:11 PM CST
Nautical Twilight 6:37 AM CST 6:55 PM CST
Astronomical Twilight 5:54 AM CST 7:37 PM CST
Moon 2:12 AM CST (2/14) 10:09 AM CST (2/14)
Length of Visible Light 10h 51m
Length of Day
9h 33m
Waning Gibbous, 50% of the Moon is Illuminated
Feb 14
Waning Gibbous
Feb 21
New
Feb 29
First Quarter
Mar 8
Full
Mar 14
Last Quarter

Hourly Weather History & Observations

Time (CST) Temp. Windchill Dew Point Humidity Pressure Visibility Wind Dir Wind Speed Gust Speed Precip Events Conditions
12:00 AM -5 °F - -6 °F 90% 29.65 in 15 mi Calm Calm - -  
12:00 AM -4.0 °F - -5.8 °F 92% 29.65 in 15.0 mi Calm Calm - N/A   Clear
1:00 AM -5.8 °F - -7.6 °F 92% 29.65 in 15.0 mi Calm Calm - N/A   Clear
2:00 AM -7.6 °F - -16.6 °F 65% 29.66 in 15.0 mi Calm Calm - N/A   Clear
3:00 AM -9.4 °F - -16.6 °F 71% 29.66 in 15.0 mi Calm Calm - N/A   Clear
4:00 AM -7.6 °F - -14.8 °F 71% 29.66 in 15.0 mi Calm Calm - N/A   Clear
5:00 AM -9.4 °F - -14.8 °F 77% 29.66 in 15.0 mi WSW 2.3 mph - N/A   Clear
6:00 AM -11 °F - -16 °F 65% 29.66 in 15 mi Calm Calm - -  
6:00 AM -11.2 °F - -16.6 °F 77% 29.66 in 15.0 mi Calm Calm - N/A   Clear
7:00 AM -11.2 °F - -16.6 °F 77% 29.66 in 15.0 mi Calm Calm - N/A   Partly Cloudy
8:00 AM -13.0 °F - -18.4 °F 77% 29.65 in 15.0 mi Calm Calm - N/A   Partly Cloudy
10:00 AM -2.2 °F - -9.4 °F 71% 29.67 in 15.0 mi Calm Calm - N/A   Partly Cloudy
11:00 AM 8.6 °F - -0.4 °F 67% 29.66 in 15.0 mi West 2.3 mph - N/A   Partly Cloudy
12:00 PM 14 °F - 3 °F 47% 29.64 in 15 mi Calm Calm - -   Scattered Clouds
12:00 PM 14.0 °F - 3.2 °F 62% 29.64 in 15.0 mi Calm Calm - N/A   Partly Cloudy
1:00 PM 19.4 °F 12.8 °F 6.8 °F 58% 29.63 in 15.0 mi South 4.6 mph - N/A   Scattered Clouds
2:00 PM 23.0 °F 17.0 °F 10.4 °F 59% 29.63 in 15.0 mi South 4.6 mph - N/A   Partly Cloudy
3:00 PM 23.0 °F 17.0 °F 10.4 °F 59% 29.62 in 15.0 mi SSE 4.6 mph - N/A   Partly Cloudy
4:00 PM 24.8 °F 20.5 °F 10.4 °F 54% 29.62 in 15.0 mi South 3.5 mph - N/A   Partly Cloudy
5:00 PM 24.8 °F 20.5 °F 10.4 °F 54% 29.62 in 15.0 mi South 3.5 mph - N/A   Partly Cloudy
6:00 PM 15 °F - 9 °F 66% 29.65 in 15 mi South 3.5 mph - -   Scattered Clouds
6:00 PM 14.0 °F 8.2 °F 8.6 °F 79% 29.65 in 15.0 mi South 3.5 mph - N/A   Partly Cloudy
7:00 PM 10.4 °F - 5.0 °F 79% 29.66 in 15.0 mi South 2.3 mph - N/A   Partly Cloudy
8:00 PM 3.2 °F -4.2 °F 1.4 °F 92% 29.65 in 15.0 mi SSE 3.5 mph - N/A   Clear
9:00 PM 3.2 °F - 1.4 °F 92% 29.66 in 15.0 mi ESE 2.3 mph - N/A   Clear
10:00 PM 3.2 °F - 1.4 °F 92% 29.66 in 15.0 mi Calm Calm - N/A   Clear
11:00 PM -0.4 °F - -0.4 °F 100% 29.67 in 15.0 mi West 2.3 mph - N/A   Mostly Cloudy